Location: Salillas
(41.9950°N, 0.2228°W)
Time: 08:34:45
(UTC+00:00)

ARGOS - Pass Details

Date: 29 March 2020
Orbit: 820 x 834 km, 98.5° (Epoch: 03 June)

Event Time Altitude Azimuth Distance (km) Brightness Sun altitude
Exits shadow 19:26:01 - 157° (SSE) 3,178 5.8 -12.2°
Reaches altitude 10° 19:27:54 10° 155° (SSE) 2,432 5.2 -12.5°
Maximum altitude 19:33:15 68° 73° (ENE) 896 3.1 -13.5°
Drops below altitude 10° 19:38:37 10° 352° (N) 2,440 6.0 -14.4°
Sets 19:40:59 0° 350° (N) 3,376 6.8 -14.8°
